This demonstration page uses our WeatherBlox Daily Observations layout. Learn more.

Left ArrowRight Arrow

53.62937, 11.41316

Hourly Observations for April 5, 2015

Temp ( °F °C ) Dew Point ( °F °C ) Humidity (%) Winds ( mph kmh ) Pressure ( in mb ) Visibility ( mi km ) Precip ( " mm )
6:20 am 06:20 Mostly Clear with Mist and Fog 25 -4 23 -5 93 93 WSW 2 4 30.15 1021 2 3 N/A
6:50 am 06:50 Partly Cloudy with Freezing Fog 25 -4 25 -4 100 100 WSW 3 6 30.18 1022 0 1 N/A
7:20 am 07:20 Partly Cloudy with Freezing Fog 25 -4 25 -4 100 100 WSW 2 4 30.18 1022 0 0 N/A
7:50 am 07:50 Partly Cloudy with Freezing Fog 27 -3 27 -3 100 100 WSW 2 4 30.18 1022 0 0 N/A
8:20 am 08:20 Partly Cloudy with Mist and Fog 30 -1 30 -1 100 100 WSW 5 7 30.21 1023 2 3 N/A
8:50 am 08:50 Mostly Sunny 34 1 34 1 100 100 VRB 2 4 30.21 1023 7 11 N/A
9:20 am 09:20 Mostly Sunny 37 3 36 2 93 93 NNW 6 9 30.21 1023 7 11 N/A
9:50 am 09:50 Mostly Sunny 41 5 34 1 76 76 N 6 9 30.21 1023 7 11 N/A
10:20 am 10:20 Mostly Sunny 43 6 28 -2 57 57 NNE 8 13 30.21 1023 7 11 N/A
10:50 am 10:50 Mostly Sunny 45 7 27 -3 49 49 N 7 11 30.21 1023 7 11 N/A
11:20 am 11:20 Mostly Sunny 46 8 23 -5 40 40 NNW 10 17 30.24 1024 7 11 N/A
11:50 am 11:50 Mostly Sunny 48 9 21 -6 34 34 N 8 13 30.24 1024 7 11 N/A
12:20 pm 12:20 Mostly Sunny 48 9 19 -7 32 32 N 9 15 30.24 1024 7 11 N/A
12:50 pm 12:50 Mostly Sunny 48 9 19 -7 32 32 VRB 9 15 30.21 1023 7 11 N/A
1:20 pm 13:20 Mostly Sunny 48 9 19 -7 32 32 NNW 9 15 30.21 1023 7 11 N/A
1:50 pm 13:50 Mostly Sunny 48 9 21 -6 34 34 NNW 8 13 30.21 1023 7 11 N/A
2:20 pm 14:20 Mostly Sunny 48 9 18 -8 29 29 NW 9 15 30.21 1023 7 11 N/A
2:50 pm 14:50 Mostly Sunny 48 9 19 -7 32 32 NNW 12 19 30.21 1023 7 11 N/A
3:20 pm 15:20 Mostly Sunny 50 10 19 -7 30 30 NNW 10 17 30.21 1023 7 11 N/A
3:50 pm 15:50 Mostly Sunny 50 10 19 -7 30 30 NNW 12 19 30.21 1023 7 11 N/A
4:20 pm 16:20 Mostly Sunny 50 10 21 -6 32 32 N 10 17 30.21 1023 7 11 N/A
4:50 pm 16:50 Mostly Sunny 48 9 18 -8 29 29 NNW 10 17 30.21 1023 7 11 N/A
5:20 pm 17:20 Mostly Sunny 48 9 21 -6 34 34 N 10 17 30.21 1023 7 11 N/A
5:50 pm 17:50 Mostly Sunny 48 9 23 -5 37 37 N 7 11 30.21 1023 7 11 N/A
6:20 pm 18:20 Mostly Sunny 48 9 23 -5 37 37 N 9 15 30.21 1023 7 11 N/A
6:50 pm 18:50 Mostly Sunny 46 8 23 -5 40 40 N 7 11 30.21 1023 7 11 N/A

Powered by AerisWeather